1535565600.39,48535,22.94,74276.3,4.45,-23.43,-23.79,0,*7E
1535565601.64,48536,22.94,74280.0,4.47,-23.19,-23.59,0,*72
1535565602.84,48537,22.94,74282.5,4.49,-23.43,-23.89,0,*7F
1535565604.07,48538,22.94,74280.5,4.47,-23.39,-23.75,0,*70
1535565605.32,48539,22.94,74284.0,4.47,-23.53,-24.05,0,*7D
1535565606.57,48540,22.94,74280.5,4.47,-23.43,-23.99,0,*70
1535565607.82,48541,22.94,74284.8,4.47,-23.53,-24.05,0,*72
1535565609.09,48542,22.94,74286.0,4.47,-23.69,-24.21,0,*7E
1535565610.34,48543,22.94,74280.3,4.47,-23.99,-24.51,0,*77
1535565611.62,48544,22.94,74280.3,4.47,-24.21,-24.67,0,*71
1535565612.87,48545,22.94,74284.3,4.47,-23.85,-24.31,0,*7A
1535565614.1,48546,22.94,74284.0,4.47,-24.05,-24.51,0,*70
1535565615.32,48547,22.94,74284.5,4.47,-23.89,-24.31,0,*74
1535565616.57,48548,22.94,74288.0,4.49,-23.69,-24.21,0,*7A
1535565617.81,48549,22.94,74288.0,4.49,-23.75,-24.21,0,*76
1535565619.06,48550,22.94,74286.8,4.49,-23.85,-24.41,0,*77
1535565620.26,48551,22.94,74284.5,4.49,-23.89,-24.35,0,*79
1535565621.5,48552,22.94,74288.5,4.49,-23.69,-24.15,0,*76
1535565622.7,48553,22.94,74284.5,4.49,-23.59,-24.05,0,*75
1535565623.93,48554,22.94,74278.0,4.49,-23.75,-24.15,0,*7D
1535565625.2,48555,22.94,74280.8,4.51,-23.53,-23.95,0,*7E
1535565626.39,48556,22.94,74282.8,4.49,-23.39,-23.75,0,*76
1535565627.63,48557,22.94,74276.8,4.51,-23.39,-23.69,0,*73
1535565628.89,48558,22.94,74278.3,4.51,-23.65,-24.11,0,*7D
1535565630.14,48559,22.94,74274.8,4.55,-23.59,-24.15,0,*73
1535565631.39,48560,22.94,74276.0,4.53,-23.49,-23.95,0,*71
1535565632.64,48561,22.94,74274.3,4.53,-23.53,-23.99,0,*77
1535565633.86,48562,22.94,74274.5,4.53,-23.85,-24.35,0,*7E
1535565635.09,48563,22.94,74278.3,4.53,-24.15,-24.51,0,*73
1535565636.31,48564,22.94,74278.3,4.53,-23.95,-24.35,0,*79
1535565637.54,48565,22.88,74276.8,4.53,-24.25,-24.61,0,*75
1535565638.79,48566,22.94,74284.3,4.51,-23.99,-24.35,0,*75
1535565640.04,48567,22.94,74282.5,4.51,-23.99,-24.47,0,*71
1535565641.26,48568,22.94,74280.3,4.49,-23.99,-24.51,0,*70
1535565642.51,48569,22.94,74280.8,4.51,-23.99,-24.35,0,*7A
1535565643.75,48570,22.94,74282.5,4.51,-23.79,-24.15,0,*7E
1535565645.03,48571,22.94,74286.8,4.51,-23.85,-24.25,0,*7F
1535565646.29,48572,22.94,74288.5,4.51,-23.53,-24.11,0,*70
1535565647.56,48573,22.94,74290.5,4.51,-23.19,-23.65,0,*7B
1535565648.77,48574,22.94,74286.0,4.53,-22.83,-23.13,0,*7D
1535565650.02,48575,22.94,74286.8,4.55,-23.29,-23.75,0,*7B
1535565651.26,48576,22.94,74286.0,4.55,-23.59,-23.95,0,*71
1535565652.51,48577,22.94,74286.3,4.55,-23.43,-23.95,0,*7B
1535565653.73,48578,22.94,74286.8,4.55,-23.43,-23.89,0,*79
1535565654.98,48579,22.94,74284.3,4.57,-23.29,-23.69,0,*78
1535565656.2,48580,22.88,74286.8,4.61,-23.23,-23.59,0,*72
1535565657.4,48581,22.94,74286.5,4.57,-23.43,-23.89,0,*7D
1535565658.65,48582,22.94,74280.3,4.57,-23.85,-24.21,0,*71
1535565659.89,48583,22.94,74280.0,4.57,-23.75,-24.21,0,*7F
1535565661.13,48584,22.88,74276.5,4.57,-23.99,-24.41,0,*7C
1535565662.34,48585,22.94,74278.0,4.57,-24.05,-24.51,0,*7E
1535565663.56,48586,22.94,74278.5,4.55,-24.05,-24.47,0,*78
1535565664.81,48587,22.94,74280.5,4.55,-24.11,-24.57,0,*7D
1535565666.09,48588,22.88,74280.5,4.55,-23.95,-24.41,0,*7E
1535565667.34,48589,22.94,74282.0,4.55,-24.21,-24.47,0,*71
1535565668.6,48590,22.94,74284.5,4.55,-24.11,-24.47,0,*7A
1535565669.82,48591,22.94,74280.3,4.53,-23.99,-24.47,0,*7A
1535565671.05,48592,22.94,74282.5,4.53,-24.11,-24.47,0,*7E
1535565672.34,48593,22.94,74284.3,4.55,-24.25,-24.71,0,*7B
1535565673.6,48594,22.94,74286.0,4.57,-24.21,-24.71,0,*7A
1535565674.85,48595,22.94,74286.8,4.55,-24.25,-24.61,0,*7C
1535565676.1,48596,22.94,74284.5,4.55,-24.11,-24.47,0,*7C
1535565677.34,48597,22.94,74284.3,4.53,-24.35,-24.83,0,*75
1535565678.6,48598,22.94,74286.8,4.55,-24.31,-24.71,0,*75
1535565679.8,48599,22.94,74286.8,4.53,-24.47,-24.93,0,*7F
1535565681.01,48600,22.94,74284.3,4.53,-24.35,-24.93,0,*79
1535565682.21,48601,22.94,74282.5,4.53,-24.47,-24.97,0,*79
1535565683.47,48602,22.94,74284.3,4.55,-24.31,-24.71,0,*75
1535565684.7,48603,22.94,74282.8,4.53,-24.31,-24.67,0,*75
1535565685.93,48604,22.94,74284.5,4.51,-24.47,-24.93,0,*7A
1535565687.18,48605,22.94,74286.3,4.51,-24.11,-24.51,0,*76
1535565688.43,48606,22.94,74288.3,4.51,-24.15,-24.61,0,*72
1535565689.68,48607,22.94,74288.0,4.51,-24.35,-24.83,0,*7D
1535565690.89,48608,22.94,74288.5,4.49,-24.51,-24.97,0,*7C
1535565692.11,48609,22.88,74286.5,4.51,-24.35,-24.77,0,*78
1535565693.37,48610,22.94,74290.0,4.51,-24.31,-24.83,0,*7F
1535565694.57,48611,22.88,74286.5,4.49,-24.35,-24.93,0,*72
1535565695.78,48612,22.94,74286.3,4.49,-24.47,-24.93,0,*74
1535565696.98,48613,22.94,74286.0,4.49,-24.57,-24.97,0,*70
1535565698.21,48614,22.94,74288.0,4.49,-24.57,-25.03,0,*7B
1535565699.44,48615,22.94,74290.3,4.49,-24.35,-24.71,0,*7A
1535565700.67,48616,22.88,74280.3,4.49,-23.85,-24.31,0,*71
1535565701.87,48617,22.94,74284.0,4.49,-23.89,-24.31,0,*7C
1535565703.1,48618,22.88,74286.0,4.49,-24.21,-24.57,0,*76
1535565704.33,48619,22.94,74284.5,4.49,-24.31,-24.67,0,*75
1535565705.6,48620,22.88,74282.5,4.51,-23.95,-24.25,0,*79
1535565706.83,48621,22.94,74284.5,4.49,-23.75,-24.15,0,*7C
1535565708.08,48622,22.88,74286.0,4.49,-23.53,-23.99,0,*78
1535565709.28,48623,22.88,74286.0,4.49,-23.43,-23.89,0,*79
1535565710.55,48624,22.94,74284.0,4.51,-23.49,-23.95,0,*70
1535565711.81,48625,22.94,74282.5,4.51,-23.49,-23.95,0,*71
1535565713.09,48626,22.88,74284.8,4.51,-23.49,-23.85,0,*73
1535565714.35,48627,22.94,74286.8,4.51,-23.65,-23.99,0,*71
1535565715.6,48628,22.88,74286.8,4.53,-23.49,-23.95,0,*7E
1535565716.82,48629,22.88,74280.0,4.53,-23.39,-23.85,0,*79
1535565718.07,48630,22.88,74280.0,4.55,-23.49,-23.89,0,*7C
1535565719.32,48631,22.88,74280.8,4.53,-23.53,-23.99,0,*71
1535565720.57,48632,22.88,74278.5,4.55,-23.89,-24.21,0,*77
1535565721.8,48633,22.94,74282.5,4.53,-24.15,-24.51,0,*75
1535565723.04,48634,22.88,74280.8,4.53,-23.85,-24.15,0,*7C
1535565724.29,48635,22.88,74286.0,4.53,-23.49,-23.95,0,*72
1535565725.54,48636,22.88,74282.0,4.53,-23.53,-23.99,0,*76
1535565726.8,48637,22.94,74282.5,4.55,-23.79,-24.21,0,*7D
1535565728.05,48638,22.94,74282.8,4.55,-23.65,-24.05,0,*79
1535565729.3,48639,22.88,74284.5,4.55,-23.79,-24.21,0,*73
1535565730.55,48640,22.94,74286.0,4.55,-23.95,-24.31,0,*7E
1535565731.8,48641,22.88,74286.3,4.55,-24.11,-24.57,0,*74
1535565733.03,48642,22.94,74286.8,4.53,-23.95,-24.35,0,*7E
1535565734.25,48643,22.88,74284.3,4.53,-23.79,-24.15,0,*7F
1535565735.5,48644,22.88,74286.0,4.55,-23.65,-24.05,0,*72
1535565736.72,48645,22.88,74286.8,4.57,-23.59,-23.99,0,*7C
1535565737.97,48646,22.88,74290.0,4.55,-23.33,-23.79,0,*7F
1535565739.19,48647,22.88,74288.5,4.55,-23.43,-23.89,0,*76
1535565740.41,48648,22.88,74286.0,4.55,-23.13,-23.59,0,*71
1535565741.66,48649,22.88,74282.8,4.55,-23.33,-23.79,0,*70
1535565742.91,48650,22.88,74282.5,4.55,-23.59,-23.95,0,*76
1535565744.16,48651,22.88,74286.5,4.61,-23.53,-23.99,0,*76
1535565745.36,48652,22.88,74286.8,4.61,-23.59,-24.05,0,*7D
1535565746.58,48653,22.88,74280.8,4.57,-23.43,-23.99,0,*70
1535565747.82,48654,22.94,74288.0,4.61,-23.75,-24.21,0,*73
1535565749.07,48655,22.88,74286.5,4.57,-23.99,-24.41,0,*73
1535565750.27,48656,22.88,74288.0,4.57,-23.75,-24.35,0,*71
1535565751.51,48657,22.94,74288.8,4.61,-23.69,-24.15,0,*7A
1535565752.74,48658,22.94,74288.5,4.61,-23.39,-23.85,0,*7E
1535565753.97,48659,22.88,74286.8,4.61,-23.43,-23.85,0,*72
1535565755.19,48660,22.88,74286.5,4.57,-23.29,-23.75,0,*7E
1535565756.42,48661,22.88,74284.5,4.61,-23.19,-23.59,0,*77
1535565757.67,48662,22.88,74286.3,4.61,-23.29,-23.69,0,*74
1535565758.9,48663,22.94,74284.5,4.61,-23.29,-23.75,0,*78
1535565760.17,48664,22.88,74282.8,4.63,-23.33,-23.69,0,*7B
1535565761.42,48665,22.94,74284.8,4.63,-23.33,-23.79,0,*7B
1535565762.66,48666,22.88,74284.0,4.65,-23.03,-23.33,0,*73
1535565763.91,48667,22.88,74288.0,4.65,-23.23,-23.49,0,*7D
1535565765.15,48668,22.88,74288.5,4.65,-23.19,-23.49,0,*7B
1535565766.35,48669,22.88,74290.8,4.65,-22.67,-22.97,0,*70
1535565767.58,48670,22.88,74286.0,4.67,-22.63,-22.97,0,*7E
1535565768.77,48671,22.88,74284.3,4.69,-22.63,-22.87,0,*70
1535565770.02,48672,22.88,74280.5,4.69,-22.73,-23.03,0,*7F
1535565771.22,48673,22.88,74286.8,4.69,-22.63,-23.13,0,*7E
1535565772.44,48674,22.88,74284.3,4.69,-23.13,-23.53,0,*7B
1535565773.69,48675,22.88,74290.0,4.73,-23.19,-23.65,0,*7E
1535565774.88,48676,22.88,74284.5,4.73,-23.39,-23.79,0,*72
1535565776.07,48677,22.88,74286.0,4.73,-23.39,-23.79,0,*73
1535565777.29,48678,22.88,74280.0,4.73,-23.39,-23.85,0,*7F
1535565778.51,48679,22.88,74284.5,4.73,-23.49,-23.79,0,*7A
1535565779.75,48680,22.88,74282.3,4.73,-23.49,-23.95,0,*7E
1535565780.97,48681,22.88,74280.3,4.73,-23.69,-24.05,0,*73
1535565782.19,48682,22.88,74280.8,4.73,-23.65,-24.05,0,*7C
1535565783.43,48683,22.88,74280.5,4.73,-23.69,-24.15,0,*70
1535565784.67,48684,22.88,74278.3,4.73,-23.33,-23.69,0,*74
1535565785.89,48685,22.88,74280.3,4.73,-23.39,-23.85,0,*7D
1535565787.13,48686,22.88,74286.8,4.73,-23.69,-24.15,0,*75
1535565788.35,48687,22.88,74284.3,4.73,-23.69,-24.31,0,*72
1535565789.6,48688,22.88,74282.8,4.73,-23.85,-24.21,0,*7E
1535565790.82,48689,22.88,74282.0,4.73,-23.85,-24.31,0,*7E
1535565792.05,48690,22.88,74282.0,4.73,-23.85,-24.31,0,*76
1535565793.27,48691,22.88,74278.5,4.73,-23.95,-24.31,0,*76
1535565794.49,48692,22.88,74278.0,4.73,-24.15,-24.51,0,*7C
1535565795.74,48693,22.88,74276.8,4.73,-24.15,-24.67,0,*78
1535565796.94,48694,22.88,74278.8,4.73,-24.31,-24.77,0,*78
1535565798.17,48695,22.88,74280.8,4.73,-24.21,-24.77,0,*78
1535565799.43,48696,22.88,74282.8,4.73,-24.21,-24.67,0,*7A
1535565800.68,48697,22.88,74286.8,4.73,-24.21,-24.83,0,*71
1535565801.91,48698,22.88,74292.0,4.73,-24.21,-24.77,0,*75
1535565803.12,48699,22.88,74290.3,4.73,-24.31,-24.77,0,*75
1535565804.34,48700,22.88,74290.3,4.69,-24.11,-24.57,0,*7F
1535565805.6,48701,22.88,74288.3,4.67,-24.25,-24.61,0,*72
1535565806.85,48702,22.88,74286.0,4.67,-24.15,-24.61,0,*72
1535565808.08,48703,22.88,74282.0,4.67,-23.79,-24.05,0,*7C
1535565809.33,48704,22.88,74286.5,4.67,-23.75,-24.15,0,*76
1535565810.58,48705,22.88,74288.8,4.67,-23.75,-24.15,0,*77
1535565811.81,48706,22.88,74286.0,4.67,-23.59,-24.05,0,*7B
1535565813.05,48707,22.88,74286.0,4.67,-23.59,-23.95,0,*74
1535565814.28,48708,22.88,74282.0,4.69,-23.53,-23.89,0,*72
1535565815.5,48709,22.88,74286.0,4.69,-23.53,-23.89,0,*73
1535565816.71,48710,22.88,74286.8,4.69,-23.69,-24.05,0,*71
1535565817.94,48711,22.88,74286.8,4.69,-23.89,-24.25,0,*7C
1535565819.16,48712,22.88,74284.3,4.69,-23.69,-24.05,0,*73
1535565820.38,48713,22.88,74282.5,4.69,-23.59,-23.99,0,*73
1535565821.66,48714,22.88,74284.5,4.67,-23.95,-24.41,0,*78
1535565822.86,48715,22.88,74284.3,4.69,-24.05,-24.51,0,*78
1535565824.06,48716,22.88,74280.8,4.69,-24.05,-24.51,0,*7B
1535565825.29,48717,22.88,74286.0,4.67,-24.05,-24.47,0,*73
1535565826.54,48718,22.88,74288.0,4.69,-23.99,-24.41,0,*76
1535565827.76,48719,22.88,74288.0,4.69,-24.11,-24.57,0,*77
1535565828.99,48720,22.88,74286.8,4.69,-24.05,-24.41,0,*7F
1535565830.19,48721,22.88,74286.8,4.69,-24.05,-24.35,0,*7D
1535565831.44,48722,22.88,74286.3,4.67,-24.11,-24.57,0,*71
1535565832.69,48723,22.88,74284.3,4.69,-24.21,-24.67,0,*7E
1535565833.92,48724,22.88,74284.3,4.69,-24.21,-24.57,0,*7A
1535565835.17,48725,22.88,74282.3,4.67,-24.41,-24.77,0,*71
1535565836.43,48726,22.88,74280.8,4.67,-24.31,-24.87,0,*7A
1535565837.69,48727,22.88,74280.0,4.69,-24.41,-24.83,0,*76
1535565838.97,48728,22.88,74286.3,4.67,-24.41,-24.87,0,*73
1535565840.23,48729,22.88,74286.5,4.67,-24.41,-24.77,0,*7D
1535565841.48,48730,22.88,74284.3,4.67,-24.15,-24.61,0,*73
1535565842.76,48731,22.88,74278.0,4.67,-24.25,-24.71,0,*70
1535565844.0,48732,22.88,74282.3,4.67,-24.31,-24.77,0,*70
1535565845.26,48733,22.88,74284.3,4.67,-24.31,-24.71,0,*77
1535565846.46,48734,22.88,74280.5,4.65,-24.31,-24.77,0,*74
1535565847.67,48735,22.88,74282.0,4.65,-24.31,-24.77,0,*75
1535565848.87,48736,22.88,74286.3,4.65,-24.31,-24.77,0,*76
1535565850.1,48737,22.88,74284.3,4.67,-24.05,-24.47,0,*71
1535565851.32,48738,22.88,74284.8,4.65,-23.99,-24.51,0,*79
1535565852.54,48739,22.88,74284.3,4.65,-24.15,-24.61,0,*78
1535565853.77,48740,22.88,74282.5,4.65,-24.21,-24.77,0,*76
1535565855.0,48741,22.88,74280.5,4.65,-24.31,-24.83,0,*7D
1535565856.23,48742,22.88,74282.3,4.65,-24.47,-24.83,0,*7F
1535565857.46,48743,22.88,74284.5,4.63,-24.35,-24.93,0,*7C
1535565858.69,48744,22.88,74282.3,4.63,-24.47,-24.93,0,*7E
1535565859.92,48745,22.88,74284.8,4.63,-24.61,-24.97,0,*7F
1535565861.15,48746,22.88,74286.8,4.65,-24.47,-24.83,0,*7B
1535565862.42,48747,22.88,74288.3,4.63,-24.21,-24.67,0,*76
1535565863.67,48748,22.88,74286.5,4.63,-24.15,-24.47,0,*7C
1535565864.95,48749,22.88,74282.5,4.63,-24.21,-24.67,0,*78
1535565866.21,48750,22.88,74280.8,4.63,-24.47,-24.83,0,*7A
1535565867.44,48751,22.88,74282.0,4.63,-24.61,-24.97,0,*7A
1535565868.64,48752,22.88,74284.5,4.61,-24.57,-24.97,0,*7E
1535565869.87,48753,22.88,74284.3,4.61,-24.51,-24.87,0,*78
1535565871.11,48754,22.88,74280.8,4.61,-24.35,-24.87,0,*7D
1535565872.34,48755,22.88,74280.5,4.61,-24.35,-24.83,0,*78
1535565873.56,48756,22.88,74280.3,4.57,-24.35,-24.83,0,*7E
1535565874.82,48757,22.88,74278.5,4.61,-24.41,-24.87,0,*7D
1535565876.05,48758,22.88,74276.0,4.61,-24.35,-24.83,0,*75
1535565877.28,48759,22.88,74276.5,4.57,-24.41,-24.97,0,*77
1535565878.48,48760,22.88,74280.3,4.57,-24.51,-24.97,0,*7C
1535565879.71,48761,22.88,74284.3,4.57,-24.51,-24.87,0,*7C
1535565880.92,48762,22.88,74278.8,4.57,-24.57,-24.97,0,*78
1535565882.14,48763,22.88,74286.5,4.57,-24.67,-25.13,0,*77
1535565883.36,48764,22.88,74286.0,4.57,-24.57,-25.03,0,*72
1535565884.65,48765,22.88,74278.5,4.55,-24.41,-24.87,0,*7B
1535565885.85,48766,22.88,74276.0,4.53,-24.61,-25.09,0,*7B
1535565887.08,48767,22.88,74282.5,4.53,-24.67,-25.09,0,*7C
1535565888.31,48768,22.88,74288.5,4.55,-24.61,-25.19,0,*72
1535565889.54,48769,22.88,74284.0,4.55,-24.47,-24.93,0,*74
1535565890.75,48770,22.88,74284.3,4.53,-24.61,-25.09,0,*7C
1535565891.96,48771,22.88,74288.3,4.53,-24.57,-25.09,0,*78
1535565893.21,48772,22.88,74288.3,4.55,-24.61,-25.03,0,*72
1535565894.49,48773,22.88,74288.5,4.55,-24.41,-24.87,0,*7C
1535565895.7,48774,22.88,74284.0,4.53,-24.35,-24.77,0,*71
1535565896.92,48775,22.88,74280.8,4.53,-24.35,-24.67,0,*71
1535565898.13,48776,22.88,74282.5,4.53,-24.31,-24.61,0,*70
1535565899.36,48777,22.88,74284.3,4.53,-24.11,-24.35,0,*72
1535565900.58,48778,22.88,74282.3,4.53,-23.99,-24.47,0,*7F
1535565901.82,48779,22.88,74280.3,4.53,-24.25,-24.77,0,*7D
1535565903.05,48780,22.88,74288.5,4.53,-24.35,-24.83,0,*71
1535565904.29,48781,22.88,74286.8,4.53,-24.25,-24.61,0,*7D
1535565905.57,48782,22.88,74284.8,4.55,-24.25,-24.71,0,*79
1535565906.78,48783,22.88,74286.0,4.53,-24.47,-24.93,0,*76
1535565908.01,48784,22.88,74284.0,4.53,-24.31,-24.67,0,*7B
1535565909.25,48785,22.88,74286.8,4.53,-23.49,-23.95,0,*78
1535565910.5,48786,22.88,74280.3,4.53,-23.49,-23.95,0,*7B
1535565911.77,48787,22.88,74284.3,4.55,-23.49,-23.95,0,*7C
1535565913.0,48788,22.88,74280.0,4.55,-23.43,-23.79,0,*7B
1535565914.24,48789,22.88,74286.8,4.55,-23.65,-24.05,0,*72
1535565915.49,48790,22.88,74286.8,4.55,-23.75,-24.11,0,*7E
1535565916.72,48791,22.88,74288.5,4.55,-23.89,-24.31,0,*7E
1535565917.97,48792,22.88,74286.3,4.55,-24.11,-24.47,0,*7A
1535565919.24,48793,22.88,74284.8,4.55,-24.11,-24.41,0,*7D
1535565920.5,48794,22.88,74286.8,4.55,-23.95,-24.31,0,*76
1535565921.75,48795,22.88,74282.0,4.55,-24.05,-24.41,0,*7E
1535565922.97,48796,22.88,74286.8,4.55,-24.05,-24.31,0,*7A
1535565924.23,48797,22.88,74284.5,4.55,-24.05,-24.41,0,*7C
1535565925.48,48798,22.88,74288.0,4.55,-24.21,-24.61,0,*77
1535565926.73,48799,22.88,74290.0,4.55,-23.95,-24.31,0,*7B
1535565928.01,48800,22.88,74288.8,4.55,-23.95,-24.41,0,*73
1535565929.24,48801,22.88,74286.5,4.53,-24.05,-24.41,0,*7A
1535565930.49,48802,22.88,74288.5,4.55,-24.11,-24.61,0,*78
1535565931.78,48803,22.88,74286.8,4.55,-24.25,-24.71,0,*7F
1535565933.01,48804,22.88,74284.5,4.57,-24.51,-24.87,0,*70
1535565934.26,48805,22.88,74280.3,4.55,-24.41,-24.77,0,*7D
1535565935.47,48806,22.88,74288.3,4.53,-24.47,-24.93,0,*74
1535565936.7,48807,22.88,74286.3,4.55,-24.47,-24.93,0,*73
1535565937.96,48808,22.88,74286.5,4.55,-24.47,-24.87,0,*79
1535565939.21,48809,22.88,74284.5,4.55,-24.57,-25.03,0,*74
1535565940.47,48810,22.88,74284.0,4.55,-24.31,-24.87,0,*71
1535565941.72,48811,22.88,74288.5,4.55,-24.41,-24.93,0,*72
1535565942.95,48812,22.88,74284.5,4.55,-24.31,-24.61,0,*7B
1535565944.19,48813,22.88,74284.3,4.53,-24.25,-24.61,0,*79
1535565945.43,48814,22.88,74282.5,4.53,-24.25,-24.61,0,*7E
1535565946.67,48815,22.88,74276.5,4.53,-24.15,-24.67,0,*7A
1535565947.9,48816,22.88,74288.3,4.55,-24.31,-24.77,0,*78
1535565949.11,48817,22.88,74294.0,4.53,-24.47,-24.93,0,*74
1535565950.37,48818,22.88,74290.0,4.55,-24.21,-24.61,0,*70
1535565951.59,48819,22.88,74288.5,4.53,-24.15,-24.47,0,*74
1535565952.82,48820,22.88,74286.0,4.53,-24.11,-24.47,0,*7A
1535565954.05,48821,22.88,74288.8,4.53,-24.11,-24.47,0,*7B
1535565955.31,48822,22.88,74288.8,4.55,-24.25,-24.57,0,*78
1535565956.53,48823,22.88,74288.3,4.53,-23.79,-24.15,0,*77
1535565957.78,48824,22.88,74290.3,4.55,-23.89,-24.25,0,*7A
1535565959.04,48825,22.88,74288.5,4.55,-23.89,-24.21,0,*7F
1535565960.29,48826,22.88,74290.5,4.53,-23.85,-24.25,0,*72
1535565961.51,48827,22.88,74284.8,4.55,-23.59,-24.05,0,*76
1535565962.76,48828,22.88,74286.0,4.55,-23.65,-24.05,0,*76
1535565964.01,48829,22.88,74286.8,4.55,-23.75,-24.11,0,*73
1535565965.27,48830,22.88,74282.3,4.57,-23.85,-24.21,0,*75
1535565966.52,48831,22.88,74284.5,4.57,-23.85,-24.21,0,*74
1535565967.77,48832,22.88,74282.8,4.57,-23.99,-24.41,0,*7C
1535565969.0,48833,22.88,74276.8,4.57,-24.21,-24.51,0,*78
1535565970.26,48834,22.88,74280.3,4.57,-24.25,-24.71,0,*79
1535565971.49,48835,22.88,74284.8,4.57,-24.35,-24.71,0,*79
1535565972.74,48836,22.88,74288.3,4.57,-24.41,-24.83,0,*74
1535565973.94,48837,22.88,74286.3,4.53,-24.61,-24.93,0,*72
1535565975.19,48838,22.88,74288.3,4.55,-24.61,-25.03,0,*73
1535565976.4,48839,22.88,74282.8,4.53,-24.47,-24.93,0,*78
1535565977.6,48840,22.88,74288.3,4.53,-24.61,-24.97,0,*76
1535565978.86,48841,22.88,74288.5,4.55,-24.47,-24.87,0,*74
1535565980.07,48842,22.88,74290.3,4.53,-24.51,-24.93,0,*73
1535565981.3,48843,22.88,74290.0,4.53,-24.41,-24.93,0,*73
1535565982.51,48844,22.88,74292.5,4.53,-24.47,-24.77,0,*78
1535565983.75,48845,22.88,74292.5,4.53,-24.25,-24.77,0,*7D
1535565984.95,48846,22.88,74294.3,4.53,-24.35,-24.77,0,*7F
1535565986.21,48847,22.88,74288.3,4.53,-24.25,-24.67,0,*7E
1535565987.44,48848,22.88,74288.0,4.53,-24.25,-24.61,0,*77
1535565988.7,48849,22.88,74292.5,4.55,-24.05,-24.41,0,*70
1535565989.92,48850,22.88,74290.0,4.53,-24.31,-24.67,0,*7D
1535565991.14,48851,22.88,74286.0,4.53,-24.47,-25.09,0,*74
1535565992.35,48852,22.88,74284.5,4.53,-24.51,-24.97,0,*76
1535565993.55,48853,22.88,74286.5,4.49,-24.47,-24.93,0,*7F
1535565994.8,48854,22.88,74286.5,4.51,-24.67,-25.13,0,*7A
1535565996.03,48855,22.88,74288.3,4.49,-24.67,-25.13,0,*72
1535565997.26,48856,22.88,74288.8,4.51,-24.47,-24.93,0,*73
1535565998.48,48857,22.88,74290.0,4.51,-24.61,-24.97,0,*72
1535565999.71,48858,22.88,74288.8,4.51,-24.51,-24.97,0,*7E
1535566000.95,48859,22.88,74290.8,4.49,-24.51,-24.87,0,*77
1535566002.2,48860,22.88,74290.5,4.49,-24.41,-24.83,0,*78
1535566003.41,48861,22.88,74288.8,4.49,-24.51,-24.97,0,*7D
1535566004.64,48862,22.88,74294.0,4.49,-24.35,-24.83,0,*79
1535566005.88,48863,22.88,74292.5,4.49,-24.31,-24.71,0,*71
1535566007.1,48864,22.88,74292.0,4.49,-24.05,-24.41,0,*72
1535566008.33,48865,22.88,74290.0,4.49,-24.05,-24.41,0,*73
1535566009.56,48866,22.88,74290.3,4.49,-24.05,-24.41,0,*70
1535566010.81,48867,22.88,74288.5,4.49,-23.85,-24.15,0,*7F
1535566012.04,48868,22.88,74290.0,4.49,-23.89,-24.21,0,*7B
1535566013.3,48869,22.88,74290.8,4.51,-23.85,-24.11,0,*7C
1535566014.55,48870,22.88,74290.8,4.51,-23.99,-24.31,0,*7B
1535566015.75,48871,22.88,74288.5,4.49,-24.05,-24.35,0,*75
1535566016.98,48872,22.88,74288.0,4.51,-23.79,-24.31,0,*77
1535566018.24,48873,22.88,74290.3,4.51,-23.65,-24.11,0,*79
1535566019.51,48874,22.88,74288.5,4.51,-23.49,-23.99,0,*77
1535566020.78,48875,22.88,74290.3,4.51,-23.53,-23.99,0,*7D
1535566022.02,48876,22.88,74286.8,4.53,-23.69,-23.99,0,*75
1535566023.28,48877,22.88,74290.0,4.55,-23.89,-24.25,0,*7C
1535566024.5,48878,22.88,74290.0,4.53,-24.15,-24.61,0,*77
1535566025.73,48879,22.88,74290.8,4.53,-24.11,-24.47,0,*76
1535566026.96,48880,22.88,74288.8,4.53,-23.79,-24.25,0,*7D
1535566028.18,48881,22.88,74292.3,4.53,-23.79,-24.15,0,*7F
1535566029.41,48882,22.88,74290.3,4.53,-23.95,-24.31,0,*78
1535566030.64,48883,22.88,74288.5,4.53,-23.99,-24.31,0,*75
1535566031.86,48884,22.88,74284.5,4.53,-23.99,-24.35,0,*76
1535566033.09,48885,22.88,74286.0,4.55,-24.05,-24.31,0,*77
1535566034.32,48886,22.88,74286.8,4.53,-24.15,-24.61,0,*76
1535566035.53,48887,22.88,74288.5,4.53,-24.31,-24.77,0,*76
1535566036.75,48888,22.88,74286.8,4.53,-24.11,-24.51,0,*7F
1535566038.01,48889,22.88,74288.3,4.53,-24.25,-24.67,0,*7C
1535566039.27,48890,22.88,74286.0,4.55,-24.25,-24.77,0,*73
1535566040.48,48891,22.88,74286.5,4.53,-24.47,-24.97,0,*7E
1535566041.71,48892,22.88,74290.0,4.53,-24.47,-24.83,0,*78
1535566042.92,48893,22.88,74288.5,4.53,-24.35,-24.77,0,*77
1535566044.13,48894,22.88,74292.0,4.53,-24.47,-24.77,0,*75
1535566045.34,48895,22.88,74292.0,4.53,-24.31,-24.77,0,*75
1535566046.57,48896,22.88,74292.0,4.53,-24.25,-24.51,0,*77
1535566047.81,48897,22.88,74288.5,4.53,-24.47,-24.83,0,*7D
1535566049.01,48898,22.88,74286.8,4.53,-24.35,-24.77,0,*7C
1535566050.22,48899,22.88,74290.8,4.49,-24.51,-24.97,0,*7A
1535566051.47,48900,22.88,74288.5,4.51,-24.35,-24.83,0,*75
1535566052.72,48901,22.88,74288.5,4.51,-24.31,-24.67,0,*7A
1535566053.95,48902,22.88,74290.3,4.51,-24.31,-24.93,0,*72
1535566055.2,48903,22.88,74292.5,4.51,-24.25,-24.51,0,*78
1535566056.41,48904,22.88,74290.0,4.53,-24.35,-24.77,0,*78
1535566057.64,48905,22.81,74290.8,4.51,-24.35,-24.77,0,*7B
1535566058.89,48906,22.88,74290.8,4.49,-24.41,-24.87,0,*7D
1535566060.12,48907,22.88,74290.0,4.51,-24.47,-24.93,0,*76
1535566061.36,48908,22.88,74290.5,4.49,-24.51,-24.87,0,*72
1535566062.56,48909,22.81,74284.5,4.49,-24.51,-24.97,0,*72
1535566063.79,48910,22.88,74292.5,4.49,-24.57,-25.03,0,*70
1535566065.02,48911,22.88,74294.5,4.49,-24.57,-25.03,0,*71
1535566066.25,48912,22.88,74292.3,4.49,-24.31,-24.67,0,*71
1535566067.45,48913,22.88,74292.5,4.49,-23.89,-24.35,0,*73
1535566068.68,48914,22.88,74290.8,4.49,-23.99,-24.31,0,*71
1535566069.92,48915,22.88,74288.0,4.51,-24.15,-24.61,0,*7F
1535566071.2,48916,22.81,74286.8,4.51,-24.25,-24.67,0,*79
1535566072.45,48917,22.88,74288.3,4.51,-24.47,-24.83,0,*76
1535566073.71,48918,22.88,74292.5,4.49,-24.41,-24.83,0,*76
1535566074.94,48919,22.81,74290.0,4.49,-24.35,-24.87,0,*70
1535566076.19,48920,22.88,74290.0,4.51,-24.31,-24.67,0,*79
1535566077.44,48921,22.88,74284.8,4.51,-24.31,-24.67,0,*78
1535566078.69,48922,22.88,74284.3,4.51,-24.47,-24.67,0,*7A
1535566079.92,48923,22.88,74288.0,4.49,-24.35,-24.83,0,*7D
1535566081.18,48924,22.81,74284.3,4.49,-24.41,-24.87,0,*7D
1535566082.38,48925,22.81,74288.3,4.49,-24.51,-24.97,0,*7C
1535566083.67,48926,22.88,74292.5,4.47,-24.41,-24.71,0,*78
1535566084.91,48927,22.88,74288.3,4.47,-24.15,-24.57,0,*7C
1535566086.15,48928,22.88,74292.8,4.45,-24.25,-24.61,0,*77
1535566087.4,48929,22.88,74292.5,4.47,-24.21,-24.51,0,*73
1535566088.66,48930,22.88,74290.3,4.47,-24.21,-24.57,0,*7D
1535566089.89,48931,22.81,74288.5,4.45,-24.25,-24.61,0,*7F
1535566091.14,48932,22.88,74290.5,4.47,-24.35,-24.67,0,*79
1535566092.39,48933,22.88,74290.8,4.47,-24.21,-24.57,0,*7E
1535566093.65,48934,22.88,74288.5,4.47,-24.35,-24.71,0,*78
1535566094.93,48935,22.88,74286.3,4.47,-24.41,-24.83,0,*77
1535566096.16,48936,22.88,74288.8,4.47,-24.51,-24.97,0,*70
1535566097.41,48937,22.88,74290.8,4.47,-24.57,-25.03,0,*7B
1535566098.67,48938,22.88,74288.5,4.47,-24.57,-25.03,0,*74
1535566099.92,48939,22.88,74290.3,4.47,-24.51,-24.87,0,*7E
1535566101.15,48940,22.81,74288.0,4.45,-24.57,-25.03,0,*79
1535566102.35,48941,22.81,74292.5,4.45,-24.57,-24.93,0,*70